Time,TemperatureF,DewpointF,PressureIn,WindDirection,WindDirectionDegrees,WindSpeedMPH,WindSpeedGustMPH,Humidity,HourlyPrecipIn,Conditions,Clouds,dailyrainin,SoftwareType,DateUTC
2013-04-25 00:01:00,66.0,56.6,29.85,WSW,248,0.0,0.0,72,0.00,,,0.00,WUHU216HW,2013-04-25 04:01:00,
2013-04-25 00:06:00,66.0,56.6,29.85,West,270,0.0,0.0,72,0.00,,,0.00,WUHU216HW,2013-04-25 04:06:00,
2013-04-25 00:11:00,66.0,57.0,29.85,SW,225,0.0,0.0,73,0.00,,,0.00,WUHU216HW,2013-04-25 04:11:00,
2013-04-25 00:16:00,65.8,56.9,29.85,West,270,0.0,0.0,73,0.00,,,0.00,WUHU216HW,2013-04-25 04:16:00,
2013-04-25 00:21:00,65.8,56.9,29.86,SSW,203,0.0,0.0,73,0.00,,,0.00,WUHU216HW,2013-04-25 04:21:00,
2013-04-25 00:26:00,65.6,56.7,29.85,SW,225,0.0,0.0,73,0.00,,,0.00,WUHU216HW,2013-04-25 04:26:00,
2013-04-25 00:31:00,65.4,56.5,29.85,South,180,0.0,0.0,73,0.00,,,0.00,WUHU216HW,2013-04-25 04:31:00,
2013-04-25 00:36:00,65.4,56.5,29.86,WSW,248,0.0,0.0,73,0.00,,,0.00,WUHU216HW,2013-04-25 04:36:00,
2013-04-25 00:41:00,65.3,56.7,29.86,SSW,203,0.0,0.0,74,0.00,,,0.00,WUHU216HW,2013-04-25 04:41:00,
2013-04-25 00:46:00,65.3,56.7,29.86,SSW,203,0.0,0.0,74,0.00,,,0.00,WUHU216HW,2013-04-25 04:46:00,
2013-04-25 00:51:00,65.1,56.6,29.86,NNW,338,0.0,0.0,74,0.00,,,0.00,WUHU216HW,2013-04-25 04:51:00,
2013-04-25 00:56:00,65.1,56.6,29.86,WSW,248,0.0,0.0,74,0.00,,,0.00,WUHU216HW,2013-04-25 04:56:00,
2013-04-25 01:01:00,64.9,56.4,29.86,WSW,248,0.0,0.0,74,0.00,,,0.00,WUHU216HW,2013-04-25 05:01:00,
2013-04-25 01:06:00,64.9,56.4,29.86,WSW,248,0.0,0.0,74,0.00,,,0.00,WUHU216HW,2013-04-25 05:06:00,
2013-04-25 01:11:00,64.9,56.8,29.86,SW,225,0.0,0.0,75,0.00,,,0.00,WUHU216HW,2013-04-25 05:11:00,
2013-04-25 01:16:00,64.7,56.6,29.86,SW,225,0.0,0.0,75,0.00,,,0.00,WUHU216HW,2013-04-25 05:16:00,
2013-04-25 01:21:00,64.7,56.6,29.86,SSW,203,0.0,0.0,75,0.00,,,0.00,WUHU216HW,2013-04-25 05:21:00,
2013-04-25 01:26:00,64.5,56.4,29.86,WSW,248,0.0,0.0,75,0.00,,,0.00,WUHU216HW,2013-04-25 05:26:00,
2013-04-25 01:31:00,64.5,56.4,29.86,WSW,248,0.0,0.0,75,0.00,,,0.00,WUHU216HW,2013-04-25 05:31:00,
2013-04-25 01:36:00,64.5,56.4,29.86,WSW,248,0.0,0.0,75,0.00,,,0.00,WUHU216HW,2013-04-25 05:36:00,
2013-04-25 01:41:00,64.5,56.8,29.86,WSW,248,0.0,0.0,76,0.00,,,0.00,WUHU216HW,2013-04-25 05:41:00,
2013-04-25 01:46:00,64.4,56.6,29.86,WSW,248,0.0,0.0,76,0.00,,,0.00,WUHU216HW,2013-04-25 05:46:00,
2013-04-25 01:51:00,64.2,56.4,29.86,SW,225,0.0,0.0,76,0.00,,,0.00,WUHU216HW,2013-04-25 05:51:00,
2013-04-25 01:56:00,64.2,56.4,29.85,SW,225,0.0,0.0,76,0.00,,,0.00,WUHU216HW,2013-04-25 05:56:00,
2013-04-25 02:01:00,64.2,56.4,29.85,ENE,68,0.0,0.0,76,0.00,,,0.00,WUHU216HW,2013-04-25 06:01:00,
2013-04-25 02:10:00,64.2,56.4,29.85,ENE,68,0.0,0.0,76,0.00,,,0.00,WUHU216HW,2013-04-25 06:10:00,
2013-04-25 02:15:00,63.6,56.3,29.85,NNW,338,0.0,0.0,77,0.00,,,0.00,WUHU216HW,2013-04-25 06:15:00,
2013-04-25 02:20:00,63.6,56.3,29.85,South,180,0.0,0.0,77,0.00,,,0.00,WUHU216HW,2013-04-25 06:20:00,
2013-04-25 02:25:00,63.6,56.3,29.85,SW,225,0.0,0.0,77,0.00,,,0.00,WUHU216HW,2013-04-25 06:25:00,
2013-04-25 02:30:00,63.6,56.3,29.86,WNW,293,0.0,0.0,77,0.00,,,0.00,WUHU216HW,2013-04-25 06:30:00,
2013-04-25 02:35:00,63.6,56.6,29.85,NNW,338,0.0,0.0,78,0.00,,,0.00,WUHU216HW,2013-04-25 06:35:00,
2013-04-25 02:40:00,63.6,56.6,29.85,North,0,0.0,0.0,78,0.00,,,0.00,WUHU216HW,2013-04-25 06:40:00,
2013-04-25 02:45:00,63.6,56.6,29.86,NNW,338,0.0,0.0,78,0.00,,,0.00,WUHU216HW,2013-04-25 06:45:00,
2013-04-25 02:50:00,63.5,56.4,29.85,NW,315,0.0,0.0,78,0.00,,,0.00,WUHU216HW,2013-04-25 06:50:00,
2013-04-25 02:55:00,63.5,56.4,29.85,WSW,248,0.0,0.0,78,0.00,,,0.00,WUHU216HW,2013-04-25 06:55:00,
2013-04-25 03:00:00,63.5,56.4,29.85,West,270,0.0,0.0,78,0.00,,,0.00,WUHU216HW,2013-04-25 07:00:00,
2013-04-25 03:05:00,63.6,56.4,29.85,NW,315,0.0,0.0,78,0.00,,,0.00,WUHU216HW,2013-04-25 07:05:00,
2013-04-25 03:10:00,63.5,56.8,29.85,West,270,0.0,0.0,79,0.00,,,0.00,WUHU216HW,2013-04-25 07:10:00,
2013-04-25 03:15:00,63.5,56.8,29.86,NNW,338,0.0,0.0,79,0.00,,,0.00,WUHU216HW,2013-04-25 07:15:00,
2013-04-25 03:20:00,63.5,56.8,29.86,NW,315,0.0,0.0,79,0.00,,,0.00,WUHU216HW,2013-04-25 07:20:00,
2013-04-25 03:25:00,63.5,56.8,29.87,NW,315,0.0,0.0,79,0.00,,,0.00,WUHU216HW,2013-04-25 07:25:00,
2013-04-25 03:30:00,63.5,56.8,29.87,NW,315,0.0,0.0,79,0.00,,,0.00,WUHU216HW,2013-04-25 07:30:00,
2013-04-25 03:35:00,63.6,57.0,29.86,NNW,338,0.0,0.0,79,0.00,,,0.00,WUHU216HW,2013-04-25 07:35:00,
2013-04-25 03:40:00,63.6,57.0,29.86,NNW,338,0.0,0.0,79,0.00,,,0.00,WUHU216HW,2013-04-25 07:40:00,
2013-04-25 03:45:00,63.5,56.8,29.87,North,0,0.0,0.0,79,0.00,,,0.00,WUHU216HW,2013-04-25 07:45:00,
2013-04-25 03:50:00,63.5,56.8,29.87,North,0,0.0,0.0,79,0.00,,,0.00,WUHU216HW,2013-04-25 07:50:00,
2013-04-25 03:55:00,63.5,57.2,29.87,NW,315,0.0,0.0,80,0.00,,,0.00,WUHU216HW,2013-04-25 07:55:00,
2013-04-25 04:00:00,63.5,57.2,29.87,NW,315,0.0,0.0,80,0.00,,,0.00,WUHU216HW,2013-04-25 08:00:00,
2013-04-25 04:05:00,63.5,57.2,29.87,WNW,293,0.0,0.0,80,0.00,,,0.00,WUHU216HW,2013-04-25 08:05:00,
2013-04-25 04:10:00,63.3,57.0,29.87,West,270,0.0,0.0,80,0.00,,,0.00,WUHU216HW,2013-04-25 08:10:00,
2013-04-25 04:15:00,63.3,57.0,29.87,NNW,338,0.0,0.0,80,0.00,,,0.00,WUHU216HW,2013-04-25 08:15:00,
2013-04-25 04:20:00,63.3,57.0,29.88,NW,315,0.0,0.0,80,0.00,,,0.00,WUHU216HW,2013-04-25 08:20:00,
2013-04-25 04:25:00,63.3,57.0,29.88,WNW,293,0.0,0.0,80,0.00,,,0.00,WUHU216HW,2013-04-25 08:25:00,
2013-04-25 04:30:00,63.1,56.8,29.88,WNW,293,0.0,0.0,80,0.00,,,0.00,WUHU216HW,2013-04-25 08:30:00,
2013-04-25 04:35:00,63.1,56.8,29.88,NNW,338,0.0,0.0,80,0.00,,,0.00,WUHU216HW,2013-04-25 08:35:00,
2013-04-25 04:40:00,63.1,56.8,29.88,NNW,338,0.0,0.0,80,0.00,,,0.00,WUHU216HW,2013-04-25 08:40:00,
2013-04-25 04:45:00,62.9,56.8,29.88,NW,315,0.0,0.0,80,0.00,,,0.00,WUHU216HW,2013-04-25 08:45:00,
2013-04-25 04:50:00,62.9,56.6,29.89,North,0,0.0,0.0,80,0.00,,,0.00,WUHU216HW,2013-04-25 08:50:00,
2013-04-25 04:55:00,62.7,56.4,29.89,NE,45,0.0,0.0,80,0.00,,,0.00,WUHU216HW,2013-04-25 08:55:00,
2013-04-25 05:00:00,62.7,56.4,29.89,North,0,0.0,0.0,80,0.00,,,0.00,WUHU216HW,2013-04-25 09:00:00,
2013-04-25 05:05:00,62.6,56.3,29.89,NNE,23,0.0,0.0,80,0.00,,,0.00,WUHU216HW,2013-04-25 09:05:00,
2013-04-25 05:09:00,62.4,56.1,29.90,NNW,338,0.0,0.0,80,0.00,,,0.00,WUHU216HW,2013-04-25 09:09:00,
2013-04-25 05:14:00,62.4,56.1,29.90,North,0,0.0,0.0,80,0.00,,,0.00,WUHU216HW,2013-04-25 09:14:00,
2013-04-25 05:19:00,62.4,55.7,29.91,NNE,23,0.0,0.0,79,0.00,,,0.00,WUHU216HW,2013-04-25 09:19:00,
2013-04-25 05:24:00,62.2,54.8,29.91,NE,45,0.0,0.0,77,0.00,,,0.00,WUHU216HW,2013-04-25 09:24:00,
2013-04-25 05:29:00,61.7,54.0,29.92,NE,45,0.0,0.0,76,0.00,,,0.00,WUHU216HW,2013-04-25 09:29:00,
2013-04-25 05:34:00,61.5,53.5,29.92,NNE,23,0.0,0.0,75,0.00,,,0.00,WUHU216HW,2013-04-25 09:34:00,
2013-04-25 05:39:00,61.3,53.0,29.92,NE,45,0.0,0.0,74,0.00,,,0.00,WUHU216HW,2013-04-25 09:39:00,
2013-04-25 05:44:00,61.1,52.1,29.92,NNE,23,0.0,0.0,72,0.00,,,0.00,WUHU216HW,2013-04-25 09:44:00,
2013-04-25 05:49:00,60.9,51.9,29.92,NNE,23,0.0,0.0,72,0.00,,,0.00,WUHU216HW,2013-04-25 09:49:00,
2013-04-25 05:54:00,60.6,51.2,29.93,NNE,23,0.0,0.0,71,0.00,,,0.00,WUHU216HW,2013-04-25 09:54:00,
2013-04-25 05:59:00,60.6,50.9,29.93,NE,45,0.0,0.0,70,0.00,,,0.00,WUHU216HW,2013-04-25 09:59:00,
2013-04-25 06:04:00,60.4,50.7,29.93,NNE,23,0.0,0.0,70,0.00,,,0.00,WUHU216HW,2013-04-25 10:04:00,
2013-04-25 06:09:00,60.4,50.7,29.93,ENE,68,0.0,0.0,70,0.00,,,0.00,WUHU216HW,2013-04-25 10:09:00,
2013-04-25 06:14:00,60.0,50.3,29.93,NNW,338,0.0,0.0,70,0.00,,,0.00,WUHU216HW,2013-04-25 10:14:00,
2013-04-25 06:19:00,59.7,49.5,29.94,NE,45,0.0,0.0,69,0.00,,,0.00,WUHU216HW,2013-04-25 10:19:00,
2013-04-25 06:24:00,59.5,49.4,29.95,NNE,23,0.0,0.0,69,0.00,,,0.00,WUHU216HW,2013-04-25 10:24:00,
2013-04-25 06:29:00,58.8,48.2,29.95,NE,45,0.0,0.0,68,0.00,,,0.00,WUHU216HW,2013-04-25 10:29:00,
2013-04-25 06:34:00,58.8,48.2,29.96,NNW,338,0.0,0.0,68,0.00,,,0.00,WUHU216HW,2013-04-25 10:34:00,
2013-04-25 06:39:00,58.8,48.2,29.96,NNW,338,0.0,0.0,68,0.00,,,0.00,WUHU216HW,2013-04-25 10:39:00,
2013-04-25 06:44:00,58.8,48.2,29.97,North,0,0.0,0.0,68,0.00,,,0.00,WUHU216HW,2013-04-25 10:44:00,
2013-04-25 06:49:00,58.4,47.9,29.97,NE,45,0.0,0.0,68,0.00,,,0.00,WUHU216HW,2013-04-25 10:49:00,
2013-04-25 06:54:00,58.2,47.7,29.98,NNE,23,0.0,0.0,68,0.00,,,0.00,WUHU216HW,2013-04-25 10:54:00,
2013-04-25 06:59:00,58.1,47.1,29.98,NNE,23,0.0,0.0,67,0.00,,,0.00,WUHU216HW,2013-04-25 10:59:00,
2013-04-25 07:04:00,58.1,47.1,29.99,NNE,23,0.0,0.0,67,0.00,,,0.00,WUHU216HW,2013-04-25 11:04:00,
2013-04-25 07:09:00,58.1,47.1,29.99,NE,45,0.0,0.0,67,0.00,,,0.00,WUHU216HW,2013-04-25 11:09:00,
2013-04-25 07:14:00,57.7,46.4,30.00,NE,45,0.0,0.0,66,0.00,,,0.00,WUHU216HW,2013-04-25 11:14:00,
2013-04-25 07:19:00,57.3,45.6,30.00,NNE,23,0.0,0.0,65,0.00,,,0.00,WUHU216HW,2013-04-25 11:19:00,
2013-04-25 07:24:00,57.2,45.5,30.00,North,0,0.0,0.0,65,0.00,,,0.00,WUHU216HW,2013-04-25 11:24:00,
2013-04-25 07:29:00,56.8,45.1,30.00,NNE,23,0.0,0.0,65,0.00,,,0.00,WUHU216HW,2013-04-25 11:29:00,
2013-04-25 07:34:00,56.4,44.8,30.00,NE,45,0.0,0.0,65,0.00,,,0.00,WUHU216HW,2013-04-25 11:34:00,
2013-04-25 07:39:00,56.4,44.8,30.00,NNW,338,0.0,0.0,65,0.00,,,0.00,WUHU216HW,2013-04-25 11:39:00,
2013-04-25 07:44:00,56.3,44.2,30.01,NE,45,0.0,0.0,64,0.00,,,0.00,WUHU216HW,2013-04-25 11:44:00,
2013-04-25 07:49:00,56.1,44.0,30.01,ENE,68,0.0,0.0,64,0.00,,,0.00,WUHU216HW,2013-04-25 11:49:00,
2013-04-25 07:54:00,56.1,44.0,30.01,North,0,0.0,0.0,64,0.00,,,0.00,WUHU216HW,2013-04-25 11:54:00,
2013-04-25 07:59:00,55.7,43.3,30.01,NW,315,0.0,0.0,63,0.00,,,0.00,WUHU216HW,2013-04-25 11:59:00,
2013-04-25 08:04:00,55.5,43.5,30.01,NNW,338,0.0,0.0,64,0.00,,,0.00,WUHU216HW,2013-04-25 12:04:00,
2013-04-25 08:09:00,55.5,43.1,30.01,North,0,0.0,0.0,63,0.00,,,0.00,WUHU216HW,2013-04-25 12:09:00,
2013-04-25 08:14:00,55.2,42.7,30.02,North,0,0.0,0.0,63,0.00,,,0.00,WUHU216HW,2013-04-25 12:14:00,
2013-04-25 08:19:00,55.2,42.7,30.02,NE,45,0.0,0.0,63,0.00,,,0.00,WUHU216HW,2013-04-25 12:19:00,
2013-04-25 08:24:00,55.2,42.7,30.02,NW,315,0.0,0.0,63,0.00,,,0.00,WUHU216HW,2013-04-25 12:24:00,
2013-04-25 08:29:00,54.8,42.0,30.02,North,0,0.0,0.0,62,0.00,,,0.00,WUHU216HW,2013-04-25 12:29:00,
2013-04-25 08:34:00,54.8,42.0,30.02,ESE,113,0.0,0.0,62,0.00,,,0.00,WUHU216HW,2013-04-25 12:34:00,
2013-04-25 08:39:00,54.8,42.0,30.02,NE,45,0.0,0.0,62,0.00,,,0.00,WUHU216HW,2013-04-25 12:39:00,
2013-04-25 08:44:00,54.8,42.0,30.03,NE,45,0.0,0.0,62,0.00,,,0.00,WUHU216HW,2013-04-25 12:44:00,
2013-04-25 08:49:00,55.0,42.2,30.03,NE,45,0.0,0.0,62,0.00,,,0.00,WUHU216HW,2013-04-25 12:49:00,
2013-04-25 08:54:00,55.2,42.3,30.03,ENE,68,0.0,0.0,62,0.00,,,0.00,WUHU216HW,2013-04-25 12:54:00,
2013-04-25 08:59:00,55.2,41.9,30.04,North,0,0.0,0.0,62,0.00,,,0.00,WUHU216HW,2013-04-25 12:59:00,
2013-04-25 09:04:00,55.2,41.9,30.04,SSW,203,0.0,0.0,61,0.00,,,0.00,WUHU216HW,2013-04-25 13:04:00,
2013-04-25 09:09:00,55.4,42.1,30.04,ESE,113,0.0,0.0,61,0.00,,,0.00,WUHU216HW,2013-04-25 13:09:00,
2013-04-25 09:14:00,55.7,42.4,30.04,NNE,23,0.0,0.0,61,0.00,,,0.00,WUHU216HW,2013-04-25 13:14:00,
2013-04-25 09:19:00,55.9,42.2,30.04,NE,45,0.0,0.0,60,0.00,,,0.00,WUHU216HW,2013-04-25 13:19:00,
2013-04-25 09:24:00,55.9,42.2,30.04,NNW,338,0.0,0.0,60,0.00,,,0.00,WUHU216HW,2013-04-25 13:24:00,
2013-04-25 09:29:00,56.1,41.9,30.04,NNE,23,0.0,0.0,59,0.00,,,0.00,WUHU216HW,2013-04-25 13:29:00,
2013-04-25 09:34:00,56.1,41.0,30.04,North,0,0.0,0.0,57,0.00,,,0.00,WUHU216HW,2013-04-25 13:34:00,
2013-04-25 09:39:00,55.9,40.8,30.04,NNE,23,0.0,0.0,57,0.00,,,0.00,WUHU216HW,2013-04-25 13:39:00,
2013-04-25 09:44:00,56.1,41.0,30.04,NE,45,0.0,0.0,57,0.00,,,0.00,WUHU216HW,2013-04-25 13:44:00,
2013-04-25 09:49:00,56.1,41.0,30.04,NNW,338,0.0,0.0,57,0.00,,,0.00,WUHU216HW,2013-04-25 13:49:00,
2013-04-25 09:54:00,56.1,41.0,30.04,East,90,0.0,0.0,57,0.00,,,0.00,WUHU216HW,2013-04-25 13:54:00,
2013-04-25 09:59:00,56.4,41.3,30.04,NE,45,0.0,0.0,57,0.00,,,0.00,WUHU216HW,2013-04-25 13:59:00,
2013-04-25 10:04:00,56.4,41.3,30.04,North,0,0.0,0.0,57,0.00,,,0.00,WUHU216HW,2013-04-25 14:04:00,
2013-04-25 10:09:00,57.0,41.7,30.04,South,180,0.0,0.0,57,0.00,,,0.00,WUHU216HW,2013-04-25 14:09:00,
2013-04-25 10:14:00,57.0,41.4,30.03,NNW,338,0.0,0.0,56,0.00,,,0.00,WUHU216HW,2013-04-25 14:14:00,
2013-04-25 10:19:00,57.2,41.6,30.03,ENE,68,0.0,0.0,56,0.00,,,0.00,WUHU216HW,2013-04-25 14:19:00,
2013-04-25 10:24:00,57.3,41.3,30.03,North,0,0.0,0.0,55,0.00,,,0.00,WUHU216HW,2013-04-25 14:24:00,
2013-04-25 10:29:00,57.5,41.9,30.03,NE,45,0.0,0.0,56,0.00,,,0.00,WUHU216HW,2013-04-25 14:29:00,
2013-04-25 10:34:00,57.7,42.1,30.03,NNE,23,0.0,0.0,56,0.00,,,0.00,WUHU216HW,2013-04-25 14:34:00,
2013-04-25 10:39:00,57.9,42.2,30.03,North,0,0.0,0.0,56,0.00,,,0.00,WUHU216HW,2013-04-25 14:39:00,
2013-04-25 10:44:00,58.2,42.6,30.03,North,0,0.0,0.0,56,0.00,,,0.00,WUHU216HW,2013-04-25 14:44:00,
2013-04-25 10:49:00,58.6,42.4,30.03,North,0,0.0,0.0,55,0.00,,,0.00,WUHU216HW,2013-04-25 14:49:00,
2013-04-25 10:54:00,58.8,42.6,30.03,North,0,0.0,0.0,55,0.00,,,0.00,WUHU216HW,2013-04-25 14:54:00,
2013-04-25 10:59:00,59.0,43.2,30.03,NNW,338,0.0,0.0,56,0.00,,,0.00,WUHU216HW,2013-04-25 14:59:00,
2013-04-25 11:04:00,59.1,42.9,30.03,NNW,338,0.0,0.0,55,0.00,,,0.00,WUHU216HW,2013-04-25 15:04:00,
2013-04-25 11:09:00,59.3,43.1,30.03,North,0,0.0,0.0,55,0.00,,,0.00,WUHU216HW,2013-04-25 15:09:00,
2013-04-25 11:14:00,59.5,43.7,30.03,SE,135,0.0,0.0,56,0.00,,,0.00,WUHU216HW,2013-04-25 15:14:00,
2013-04-25 11:19:00,60.0,44.2,30.03,North,0,0.0,0.0,56,0.00,,,0.00,WUHU216HW,2013-04-25 15:19:00,
2013-04-25 11:24:00,60.6,44.8,30.03,East,90,0.0,0.0,56,0.00,,,0.00,WUHU216HW,2013-04-25 15:24:00,
2013-04-25 11:29:00,60.9,44.6,30.03,South,180,0.0,0.0,55,0.00,,,0.00,WUHU216HW,2013-04-25 15:29:00,
2013-04-25 11:34:00,61.1,44.8,30.03,SW,225,0.0,0.0,55,0.00,,,0.00,WUHU216HW,2013-04-25 15:34:00,
2013-04-25 11:39:00,61.3,44.5,30.03,NE,45,0.0,0.0,54,0.00,,,0.00,WUHU216HW,2013-04-25 15:39:00,
2013-04-25 11:44:00,61.3,44.5,30.04,North,0,0.0,0.0,54,0.00,,,0.00,WUHU216HW,2013-04-25 15:44:00,
2013-04-25 11:49:00,61.5,44.6,30.04,ENE,68,0.0,0.0,54,0.00,,,0.00,WUHU216HW,2013-04-25 15:49:00,
2013-04-25 11:54:00,61.8,44.9,30.04,NE,45,0.0,0.0,54,0.00,,,0.00,WUHU216HW,2013-04-25 15:54:00,
2013-04-25 11:59:00,62.2,44.8,30.04,NE,45,0.0,0.0,53,0.00,,,0.00,WUHU216HW,2013-04-25 15:59:00,
2013-04-25 12:04:00,62.0,44.8,30.04,NE,45,0.0,0.0,53,0.00,,,0.00,WUHU216HW,2013-04-25 16:04:00,
2013-04-25 12:09:00,62.2,44.8,30.04,North,0,0.0,0.0,53,0.00,,,0.00,WUHU216HW,2013-04-25 16:09:00,
2013-04-25 12:14:00,62.4,45.4,30.04,ENE,68,0.0,0.0,54,0.00,,,0.00,WUHU216HW,2013-04-25 16:14:00,
2013-04-25 12:19:00,62.9,45.9,30.04,NNE,23,0.0,0.0,54,0.00,,,0.00,WUHU216HW,2013-04-25 16:19:00,
2013-04-25 12:24:00,63.3,46.2,30.04,NE,45,0.0,0.0,54,0.00,,,0.00,WUHU216HW,2013-04-25 16:24:00,
2013-04-25 12:29:00,63.6,46.1,30.04,NNE,23,0.0,0.0,53,0.00,,,0.00,WUHU216HW,2013-04-25 16:29:00,
2013-04-25 12:34:00,63.6,46.1,30.04,NW,315,0.0,0.0,53,0.00,,,0.00,WUHU216HW,2013-04-25 16:34:00,
2013-04-25 12:38:00,63.6,45.6,30.04,WNW,293,0.0,0.0,52,0.00,,,0.00,WUHU216HW,2013-04-25 16:38:00,
2013-04-25 12:43:00,63.6,45.6,30.04,NNW,338,0.0,0.0,52,0.00,,,0.00,WUHU216HW,2013-04-25 16:43:00,
2013-04-25 12:48:00,64.0,46.4,30.04,NE,45,0.0,0.0,53,0.00,,,0.00,WUHU216HW,2013-04-25 16:48:00,
2013-04-25 12:53:00,64.5,46.9,30.03,NNW,338,0.0,0.0,53,0.00,,,0.00,WUHU216HW,2013-04-25 16:53:00,
2013-04-25 12:58:00,64.7,46.6,30.03,ENE,68,0.0,0.0,52,0.00,,,0.00,WUHU216HW,2013-04-25 16:58:00,
2013-04-25 13:03:00,65.1,47.0,30.03,North,0,0.0,0.0,52,0.00,,,0.00,WUHU216HW,2013-04-25 17:03:00,
2013-04-25 13:08:00,65.1,46.5,30.03,West,270,0.0,0.0,51,0.00,,,0.00,WUHU216HW,2013-04-25 17:08:00,
2013-04-25 13:13:00,64.9,46.3,30.03,WNW,293,0.0,0.0,51,0.00,,,0.00,WUHU216HW,2013-04-25 17:13:00,
2013-04-25 13:18:00,65.1,47.0,30.03,WSW,248,0.0,0.0,52,0.00,,,0.00,WUHU216HW,2013-04-25 17:18:00,
2013-04-25 13:23:00,65.4,46.8,30.03,NNW,338,0.0,0.0,51,0.00,,,0.00,WUHU216HW,2013-04-25 17:23:00,
2013-04-25 13:28:00,66.0,47.9,30.03,ESE,113,0.0,0.0,52,0.00,,,0.00,WUHU216HW,2013-04-25 17:28:00,
2013-04-25 13:33:00,66.0,46.9,30.03,NNW,338,0.0,0.0,50,0.00,,,0.00,WUHU216HW,2013-04-25 17:33:00,
2013-04-25 13:38:00,66.2,47.6,30.03,NW,315,0.0,0.0,51,0.00,,,0.00,WUHU216HW,2013-04-25 17:38:00,
2013-04-25 13:43:00,66.7,48.4,30.03,NNW,338,0.0,0.0,52,0.00,,,0.00,WUHU216HW,2013-04-25 17:43:00,
2013-04-25 13:48:00,66.7,47.6,30.03,North,0,0.0,0.0,50,0.00,,,0.00,WUHU216HW,2013-04-25 17:48:00,
2013-04-25 13:53:00,67.1,47.9,30.03,North,0,0.0,0.0,50,0.00,,,0.00,WUHU216HW,2013-04-25 17:53:00,
2013-04-25 13:58:00,67.2,48.0,30.03,NNW,338,0.0,0.0,50,0.00,,,0.00,WUHU216HW,2013-04-25 17:58:00,
2013-04-25 14:03:00,67.4,48.0,30.03,ESE,113,0.0,0.0,50,0.00,,,0.00,WUHU216HW,2013-04-25 18:03:00,
2013-04-25 14:08:00,67.6,48.5,30.04,NE,45,0.0,0.0,51,0.00,,,0.00,WUHU216HW,2013-04-25 18:08:00,
2013-04-25 14:13:00,68.1,48.9,30.03,NNW,338,0.0,0.0,50,0.00,,,0.00,WUHU216HW,2013-04-25 18:13:00,
2013-04-25 14:18:00,68.3,48.4,30.03,West,270,0.0,0.0,49,0.00,,,0.00,WUHU216HW,2013-04-25 18:18:00,
2013-04-25 14:23:00,68.1,48.9,30.03,ENE,68,0.0,0.0,50,0.00,,,0.00,WUHU216HW,2013-04-25 18:23:00,
2013-04-25 14:28:00,68.5,48.6,30.03,NE,45,0.0,0.0,49,0.00,,,0.00,WUHU216HW,2013-04-25 18:28:00,
2013-04-25 14:33:00,68.7,48.2,30.03,West,270,0.0,0.0,48,0.00,,,0.00,WUHU216HW,2013-04-25 18:33:00,
2013-04-25 14:38:00,68.7,48.2,30.03,ESE,113,0.0,0.0,48,0.00,,,0.00,WUHU216HW,2013-04-25 18:38:00,
2013-04-25 14:43:00,68.9,48.3,30.03,NE,45,0.0,0.0,48,0.00,,,0.00,WUHU216HW,2013-04-25 18:43:00,
2013-04-25 14:48:00,68.7,48.2,30.03,North,0,0.0,0.0,48,0.00,,,0.00,WUHU216HW,2013-04-25 18:48:00,
2013-04-25 14:53:00,68.7,48.2,30.02,NE,45,0.0,0.0,48,0.00,,,0.00,WUHU216HW,2013-04-25 18:53:00,
2013-04-25 14:58:00,69.0,48.5,30.02,NW,315,0.0,0.0,48,0.00,,,0.00,WUHU216HW,2013-04-25 18:58:00,
2013-04-25 15:03:00,69.4,49.4,30.01,NNE,23,0.0,0.0,49,0.00,,,0.00,WUHU216HW,2013-04-25 19:03:00,
2013-04-25 15:08:00,69.6,49.0,30.02,NE,45,0.0,0.0,48,0.00,,,0.00,WUHU216HW,2013-04-25 19:08:00,
2013-04-25 15:13:00,70.1,50.0,30.01,NE,45,0.0,0.0,49,0.00,,,0.00,WUHU216HW,2013-04-25 19:13:00,
2013-04-25 15:18:00,70.5,49.8,30.01,NNE,23,0.0,0.0,48,0.00,,,0.00,WUHU216HW,2013-04-25 19:18:00,
2013-04-25 15:23:00,70.7,49.3,30.01,WSW,248,0.0,0.0,47,0.00,,,0.00,WUHU216HW,2013-04-25 19:23:00,
2013-04-25 15:28:00,70.7,48.2,30.01,SSW,203,0.0,0.0,45,0.00,,,0.00,WUHU216HW,2013-04-25 19:28:00,
2013-04-25 15:33:00,70.8,48.3,30.01,South,180,0.0,0.0,45,0.00,,,0.00,WUHU216HW,2013-04-25 19:33:00,
2013-04-25 15:38:00,70.7,47.6,30.01,NNE,23,0.0,0.0,44,0.00,,,0.00,WUHU216HW,2013-04-25 19:38:00,
2013-04-25 15:43:00,70.8,47.1,30.01,NNW,338,0.0,0.0,43,0.00,,,0.00,WUHU216HW,2013-04-25 19:43:00,
2013-04-25 15:48:00,70.7,46.4,30.01,West,270,0.0,0.0,42,0.00,,,0.00,WUHU216HW,2013-04-25 19:48:00,
2013-04-25 15:53:00,70.5,46.2,30.00,North,0,0.0,0.0,42,0.00,,,0.00,WUHU216HW,2013-04-25 19:53:00,
2013-04-25 15:58:00,70.7,47.0,30.00,ENE,68,0.0,0.0,43,0.00,,,0.00,WUHU216HW,2013-04-25 19:58:00,
2013-04-25 16:03:00,71.2,47.4,30.00,SE,135,0.0,0.0,43,0.00,,,0.00,WUHU216HW,2013-04-25 20:03:00,
2013-04-25 16:08:00,71.4,47.6,30.00,East,90,0.0,0.0,43,0.00,,,0.00,WUHU216HW,2013-04-25 20:08:00,
2013-04-25 16:13:00,71.7,47.3,30.00,ESE,113,0.0,0.0,42,0.00,,,0.00,WUHU216HW,2013-04-25 20:13:00,
2013-04-25 16:18:00,71.9,47.5,30.00,SSE,158,0.0,0.0,42,0.00,,,0.00,WUHU216HW,2013-04-25 20:18:00,
2013-04-25 16:23:00,72.3,47.8,29.99,NE,45,0.0,0.0,42,0.00,,,0.00,WUHU216HW,2013-04-25 20:23:00,
2013-04-25 16:28:00,72.3,47.2,29.98,NNW,338,0.0,0.0,41,0.00,,,0.00,WUHU216HW,2013-04-25 20:28:00,
2013-04-25 16:33:00,72.3,46.6,29.98,NW,315,0.0,0.0,40,0.00,,,0.00,WUHU216HW,2013-04-25 20:33:00,
2013-04-25 16:38:00,71.7,46.2,29.98,NE,45,0.0,0.0,40,0.00,,,0.00,WUHU216HW,2013-04-25 20:38:00,
2013-04-25 16:43:00,71.9,46.3,29.98,SE,135,0.0,0.0,40,0.00,,,0.00,WUHU216HW,2013-04-25 20:43:00,
2013-04-25 16:48:00,71.9,46.3,29.98,WNW,293,0.0,0.0,39,0.00,,,0.00,WUHU216HW,2013-04-25 20:48:00,
2013-04-25 16:53:00,71.9,46.3,29.98,NE,45,0.0,0.0,40,0.00,,,0.00,WUHU216HW,2013-04-25 20:53:00,
2013-04-25 16:58:00,71.7,46.2,29.98,NE,45,0.0,0.0,40,0.00,,,0.00,WUHU216HW,2013-04-25 20:58:00,
2013-04-25 17:03:00,71.9,45.6,29.98,NNE,23,0.0,0.0,39,0.00,,,0.00,WUHU216HW,2013-04-25 21:03:00,
2013-04-25 17:08:00,71.9,44.8,29.98,SW,225,0.0,0.0,38,0.00,,,0.00,WUHU216HW,2013-04-25 21:08:00,
2013-04-25 17:13:00,71.9,44.8,29.98,NNE,23,0.0,0.0,38,0.00,,,0.00,WUHU216HW,2013-04-25 21:13:00,
2013-04-25 17:18:00,71.9,44.8,29.98,NNE,23,0.0,0.0,38,0.00,,,0.00,WUHU216HW,2013-04-25 21:18:00,
2013-04-25 17:23:00,71.7,44.7,29.98,North,0,0.0,0.0,38,0.00,,,0.00,WUHU216HW,2013-04-25 21:23:00,
2013-04-25 17:28:00,71.7,44.7,29.98,NE,45,0.0,0.0,38,0.00,,,0.00,WUHU216HW,2013-04-25 21:28:00,
2013-04-25 17:33:00,71.7,43.9,29.98,South,180,0.0,0.0,37,0.00,,,0.00,WUHU216HW,2013-04-25 21:33:00,
2013-04-25 17:38:00,71.7,44.7,29.98,NNW,338,0.0,0.0,38,0.00,,,0.00,WUHU216HW,2013-04-25 21:38:00,
2013-04-25 17:43:00,71.9,43.3,29.98,NE,45,0.0,0.0,36,0.00,,,0.00,WUHU216HW,2013-04-25 21:43:00,
2013-04-25 17:48:00,71.7,42.4,29.99,ENE,68,0.0,0.0,35,0.00,,,0.00,WUHU216HW,2013-04-25 21:48:00,
2013-04-25 17:53:00,71.7,43.2,29.98,ESE,113,0.0,0.0,36,0.00,,,0.00,WUHU216HW,2013-04-25 21:53:00,
2013-04-25 17:58:00,71.9,43.3,29.99,NNE,23,0.0,0.0,36,0.00,,,0.00,WUHU216HW,2013-04-25 21:58:00,
2013-04-25 18:03:00,72.1,43.5,29.99,NE,45,0.0,0.0,36,0.00,,,0.00,WUHU216HW,2013-04-25 22:03:00,
2013-04-25 18:08:00,72.3,43.7,29.99,NE,45,0.0,0.0,36,0.00,,,0.00,WUHU216HW,2013-04-25 22:08:00,
2013-04-25 18:13:00,72.3,43.7,29.99,ENE,68,0.0,0.0,36,0.00,,,0.00,WUHU216HW,2013-04-25 22:13:00,
2013-04-25 18:18:00,72.5,43.1,29.99,NNW,338,0.0,0.0,35,0.00,,,0.00,WUHU216HW,2013-04-25 22:18:00,
2013-04-25 18:23:00,72.3,42.9,29.99,NE,45,0.0,0.0,35,0.00,,,0.00,WUHU216HW,2013-04-25 22:23:00,
2013-04-25 18:28:00,72.3,42.9,29.99,North,0,0.0,0.0,35,0.00,,,0.00,WUHU216HW,2013-04-25 22:28:00,
2013-04-25 18:33:00,72.3,42.9,29.99,North,0,0.0,0.0,35,0.00,,,0.00,WUHU216HW,2013-04-25 22:33:00,
2013-04-25 18:38:00,72.1,42.0,29.99,North,0,0.0,0.0,34,0.00,,,0.00,WUHU216HW,2013-04-25 22:38:00,
2013-04-25 18:43:00,71.9,41.9,29.99,NNW,338,0.0,0.0,34,0.00,,,0.00,WUHU216HW,2013-04-25 22:43:00,
2013-04-25 18:48:00,71.7,41.0,29.99,NNE,23,0.0,0.0,33,0.00,,,0.00,WUHU216HW,2013-04-25 22:48:00,
2013-04-25 18:53:00,71.7,41.7,29.99,NE,45,0.0,0.0,34,0.00,,,0.00,WUHU216HW,2013-04-25 22:53:00,
2013-04-25 18:58:00,71.7,41.7,29.99,NE,45,0.0,0.0,34,0.00,,,0.00,WUHU216HW,2013-04-25 22:58:00,
2013-04-25 19:03:00,71.7,43.3,29.99,NE,45,0.0,0.0,36,0.00,,,0.00,WUHU216HW,2013-04-25 23:03:00,
2013-04-25 19:08:00,71.7,43.9,29.99,NE,45,0.0,0.0,37,0.00,,,0.00,WUHU216HW,2013-04-25 23:08:00,
2013-04-25 19:13:00,71.4,42.9,29.99,NE,45,0.0,0.0,36,0.00,,,0.00,WUHU216HW,2013-04-25 23:13:00,
2013-04-25 19:18:00,71.4,44.4,29.99,NE,45,0.0,0.0,38,0.00,,,0.00,WUHU216HW,2013-04-25 23:18:00,
2013-04-25 19:23:00,71.0,44.0,29.99,NE,45,0.0,0.0,38,0.00,,,0.00,WUHU216HW,2013-04-25 23:23:00,
2013-04-25 19:28:00,70.5,44.3,30.00,NE,45,0.0,0.0,39,0.00,,,0.00,WUHU216HW,2013-04-25 23:28:00,
2013-04-25 19:33:00,69.9,44.5,30.00,NE,45,0.0,0.0,40,0.00,,,0.00,WUHU216HW,2013-04-25 23:33:00,
2013-04-25 19:38:00,69.4,44.6,30.00,NE,45,0.0,0.0,41,0.00,,,0.00,WUHU216HW,2013-04-25 23:38:00,
2013-04-25 19:43:00,68.9,44.3,30.00,NE,45,0.0,0.0,41,0.00,,,0.00,WUHU216HW,2013-04-25 23:43:00,
2013-04-25 19:48:00,68.5,44.4,30.00,NE,45,0.0,0.0,42,0.00,,,0.00,WUHU216HW,2013-04-25 23:48:00,
2013-04-25 19:53:00,68.1,44.7,30.00,NE,45,0.0,0.0,43,0.00,,,0.00,WUHU216HW,2013-04-25 23:53:00,
2013-04-25 19:58:00,67.8,45.0,30.00,NE,45,0.0,0.0,44,0.00,,,0.00,WUHU216HW,2013-04-25 23:58:00,
2013-04-25 20:03:00,67.4,44.6,30.00,NE,45,0.0,0.0,44,0.00,,,0.00,WUHU216HW,2013-04-26 00:03:00,
2013-04-25 20:08:00,66.9,44.7,30.00,NE,45,0.0,0.0,45,0.00,,,0.00,WUHU216HW,2013-04-26 00:08:00,
2013-04-25 20:13:00,66.5,44.4,30.01,NE,45,0.0,0.0,45,0.00,,,0.00,WUHU216HW,2013-04-26 00:13:00,
2013-04-25 20:18:00,66.0,43.9,30.01,NE,45,0.0,0.0,45,0.00,,,0.00,WUHU216HW,2013-04-26 00:18:00,
2013-04-25 20:23:00,65.8,44.3,30.01,NE,45,0.0,0.0,46,0.00,,,0.00,WUHU216HW,2013-04-26 00:23:00,
2013-04-25 20:28:00,65.3,44.4,30.01,NE,45,0.0,0.0,47,0.00,,,0.00,WUHU216HW,2013-04-26 00:28:00,
2013-04-25 20:33:00,65.1,44.2,30.02,NE,45,0.0,0.0,47,0.00,,,0.00,WUHU216HW,2013-04-26 00:33:00,
2013-04-25 20:37:00,64.7,44.5,30.02,NE,45,0.0,0.0,48,0.00,,,0.00,WUHU216HW,2013-04-26 00:37:00,
2013-04-25 20:42:00,64.2,44.5,30.02,NE,45,0.0,0.0,49,0.00,,,0.00,WUHU216HW,2013-04-26 00:42:00,
2013-04-25 20:47:00,64.0,44.9,30.02,NE,45,0.0,0.0,50,0.00,,,0.00,WUHU216HW,2013-04-26 00:47:00,
2013-04-25 20:52:00,63.6,44.6,30.03,NE,45,0.0,0.0,50,0.00,,,0.00,WUHU216HW,2013-04-26 00:52:00,
2013-04-25 20:57:00,63.3,44.3,30.02,NE,45,0.0,0.0,50,0.00,,,0.00,WUHU216HW,2013-04-26 00:57:00,
2013-04-25 21:02:00,63.1,44.6,30.03,NE,45,0.0,0.0,51,0.00,,,0.00,WUHU216HW,2013-04-26 01:02:00,
2013-04-25 21:07:00,62.7,44.3,30.03,NE,45,0.0,0.0,51,0.00,,,0.00,WUHU216HW,2013-04-26 01:07:00,
2013-04-25 21:12:00,62.4,44.0,30.04,NE,45,0.0,0.0,51,0.00,,,0.00,WUHU216HW,2013-04-26 01:12:00,
2013-04-25 21:17:00,62.0,44.1,30.04,NE,45,0.0,0.0,52,0.00,,,0.00,WUHU216HW,2013-04-26 01:17:00,
2013-04-25 21:22:00,61.7,43.8,30.04,NE,45,0.0,0.0,52,0.00,,,0.00,WUHU216HW,2013-04-26 01:22:00,
2013-04-25 21:27:00,61.5,43.7,30.04,NE,45,0.0,0.0,52,0.00,,,0.00,WUHU216HW,2013-04-26 01:27:00,
2013-04-25 21:32:00,61.3,44.0,30.04,NE,45,0.0,0.0,53,0.00,,,0.00,WUHU216HW,2013-04-26 01:32:00,
2013-04-25 21:37:00,61.1,43.8,30.05,NE,45,0.0,0.0,53,0.00,,,0.00,WUHU216HW,2013-04-26 01:37:00,
2013-04-25 21:42:00,60.9,44.1,30.05,NE,45,0.0,0.0,54,0.00,,,0.00,WUHU216HW,2013-04-26 01:42:00,
2013-04-25 21:47:00,60.6,43.8,30.05,NE,45,0.0,0.0,54,0.00,,,0.00,WUHU216HW,2013-04-26 01:47:00,
2013-04-25 21:52:00,60.4,44.1,30.05,NE,45,0.0,0.0,55,0.00,,,0.00,WUHU216HW,2013-04-26 01:52:00,
2013-04-25 21:57:00,60.0,43.8,30.05,NE,45,0.0,0.0,55,0.00,,,0.00,WUHU216HW,2013-04-26 01:57:00,
2013-04-25 22:02:00,59.9,43.6,30.05,NE,45,0.0,0.0,55,0.00,,,0.00,WUHU216HW,2013-04-26 02:02:00,
2013-04-25 22:07:00,59.7,43.9,30.05,NE,45,0.0,0.0,56,0.00,,,0.00,WUHU216HW,2013-04-26 02:07:00,
2013-04-25 22:12:00,59.5,44.2,30.05,NE,45,0.0,0.0,57,0.00,,,0.00,WUHU216HW,2013-04-26 02:12:00,
2013-04-25 22:17:00,59.1,43.8,30.05,NE,45,0.0,0.0,57,0.00,,,0.00,WUHU216HW,2013-04-26 02:17:00,
2013-04-25 22:22:00,58.8,43.5,30.06,NE,45,0.0,0.0,57,0.00,,,0.00,WUHU216HW,2013-04-26 02:22:00,
2013-04-25 22:27:00,58.8,44.0,30.05,NE,45,0.0,0.0,58,0.00,,,0.00,WUHU216HW,2013-04-26 02:27:00,
2013-04-25 22:32:00,58.8,44.0,30.06,NE,45,0.0,0.0,58,0.00,,,0.00,WUHU216HW,2013-04-26 02:32:00,
2013-04-25 22:37:00,58.8,44.0,30.05,NE,45,0.0,0.0,58,0.00,,,0.00,WUHU216HW,2013-04-26 02:37:00,
2013-04-25 22:42:00,58.4,43.7,30.06,NE,45,0.0,0.0,58,0.00,,,0.00,WUHU216HW,2013-04-26 02:42:00,
2013-04-25 22:47:00,58.2,43.5,30.06,NE,45,0.0,0.0,58,0.00,,,0.00,WUHU216HW,2013-04-26 02:47:00,
2013-04-25 22:52:00,57.9,43.7,30.06,NE,45,0.0,0.0,59,0.00,,,0.00,WUHU216HW,2013-04-26 02:52:00,
2013-04-25 22:57:00,57.9,43.7,30.06,NE,45,0.0,0.0,59,0.00,,,0.00,WUHU216HW,2013-04-26 02:57:00,
2013-04-25 23:02:00,57.7,43.5,30.07,NE,45,0.0,0.0,59,0.00,,,0.00,WUHU216HW,2013-04-26 03:02:00,
2013-04-25 23:07:00,57.3,43.6,30.06,NE,45,0.0,0.0,60,0.00,,,0.00,WUHU216HW,2013-04-26 03:07:00,
2013-04-25 23:12:00,57.2,43.5,30.07,NE,45,0.0,0.0,60,0.00,,,0.00,WUHU216HW,2013-04-26 03:12:00,
2013-04-25 23:17:00,57.0,43.3,30.06,NE,45,0.0,0.0,60,0.00,,,0.00,WUHU216HW,2013-04-26 03:17:00,
2013-04-25 23:22:00,57.0,43.7,30.06,NE,45,0.0,0.0,61,0.00,,,0.00,WUHU216HW,2013-04-26 03:22:00,
2013-04-25 23:27:00,57.0,43.7,30.06,NE,45,0.0,0.0,61,0.00,,,0.00,WUHU216HW,2013-04-26 03:27:00,
2013-04-25 23:32:00,56.8,43.5,30.06,NE,45,0.0,0.0,61,0.00,,,0.00,WUHU216HW,2013-04-26 03:32:00,
2013-04-25 23:37:00,56.8,43.5,30.06,NE,45,0.0,0.0,61,0.00,,,0.00,WUHU216HW,2013-04-26 03:37:00,
2013-04-25 23:42:00,56.4,43.3,30.06,NE,45,0.0,0.0,61,0.00,,,0.00,WUHU216HW,2013-04-26 03:42:00,
2013-04-25 23:47:00,56.4,43.1,30.06,NE,45,0.0,0.0,61,0.00,,,0.00,WUHU216HW,2013-04-26 03:47:00,
2013-04-25 23:52:00,56.3,43.4,30.06,NE,45,0.0,0.0,62,0.00,,,0.00,WUHU216HW,2013-04-26 03:52:00,
2013-04-25 23:57:00,56.1,42.8,30.06,NE,45,0.0,0.0,61,0.00,,,0.00,WUHU216HW,2013-04-26 03:57:00,